DW3212 Weather Reports


time (UTC)temp
C
wind
direction
speed
KPH
gust
KPH
rain 1hr
cm
rain 24hr
cm
rain mn
cm
humidity
%
barometer
mb
20260903080100 13 0.0 0.0 0.00 0.00 0.00 97 1016.3
20260903074603 13 0.0 0.0 0.00 0.00 0.00 97 1016.4
20260903073111 13 0.0 0.0 0.00 0.00 0.00 97 1016.5
20260903071603 13 0.0 0.0 0.00 0.00 0.00 97 1016.5
20260903070106 13 0.0 0.0 0.00 0.00 0.00 97 1016.5
20260903064559 13 0.0 0.0 0.00 0.00 0.00 97 1016.7
20260903063102 13 0.0 0.0 0.00 0.00 0.00 96 1016.8
20260903061610 13 0.0 0.0 0.00 0.00 0.00 96 1017.2
20260903054600 13 0.0 0.0 0.00 0.00 0.00 95 1017.5
20260903053110 13 0.0 0.0 0.00 0.00 0.00 94 1017.8
20260903051603 14 0.0 0.0 0.00 0.00 0.00 93 1018.1
20260903050107 14 0.0 0.0 0.00 0.00 0.00 92 1018.0
20260903044608 14 0.0 0.0 0.00 0.00 0.00 92 1018.0
20260903043128 14 0.0 0.0 0.00 0.00 0.00 91 1017.7
20260903041602 14 0.0 0.0 0.00 0.00 0.00 90 1017.8
20260903040109 14 0.0 0.0 0.00 0.00 0.00 89 1018.3
20260903034603 14 0.0 0.0 0.00 0.00 0.00 88 1018.4
20260903033103 14 0.0 0.0 0.00 0.00 0.00 88 1018.5
20260903031619 15 0.0 0.0 0.00 0.00 0.00 89 1018.6
20260903030116 15 0.0 0.0 0.00 0.00 0.00 91 1018.8
20260903024608 15 0.0 0.0 0.00 0.03 0.00 91 1018.8
20260903023103 15 0.0 0.0 0.00 0.03 0.00 91 1019.1
20260903021601 15 0.0 0.0 0.00 0.03 0.00 92 1019.3
20260903020100 15 0.0 0.0 0.00 0.03 0.00 91 1019.4
20260903014612 15 0.0 0.0 0.00 0.03 0.00 91 1019.8
20260903013104 15 0.0 0.0 0.00 0.03 0.00 91 1020.1
20260903011609 15 0.0 0.0 0.00 0.03 0.00 91 1019.9
20260903010118 15 0.0 0.0 0.00 0.03 0.00 93 1019.9
20260903004600 15 0.0 0.0 0.00 0.05 0.00 94 1019.9
20260903003105 15 0.0 0.0 0.00 0.05 0.00 93 1019.7
20260903001601 15 0.0 0.0 0.00 0.05 0.00 93 1019.2
20260903000104 15 0.0 0.0 0.00 0.05 0.00 93 1019.2
20260902234605 15 0.0 0.0 0.00 0.05 0.00 93 1019.7
20260902233103 15 0.0 0.0 0.00 0.05 0.00 92 1019.9
20260902231611 15 0.0 0.0 0.00 0.05 0.00 92 1020.1
20260902230105 16 0.0 0.0 0.00 0.05 0.00 92 1020.6
20260902224606 16 0.0 0.0 0.00 0.05 0.00 92 1020.8
20260902223059 16 0.0 0.0 0.00 0.05 0.00 92 1021.0
20260902221623 16 0.0 0.0 0.00 0.05 0.00 91 1021.1
20260902220100 16 0.0 0.0 0.00 0.05 0.00 91 1021.1
20260902214601 16 0.0 0.0 0.00 0.08 0.00 90 1021.3
20260902213100 16 0.0 0.0 0.00 0.08 0.00 91 1021.2
20260902211558 16 0.0 0.0 0.00 0.08 0.00 91 1021.3
20260902204601 16 0.0 0.0 0.00 0.08 0.00 91 1021.1
20260902203100 16 0.0 0.0 0.00 0.08 0.00 91 1021.4
20260902201601 16 0.0 0.0 0.00 0.08 0.00 90 1021.0
20260902194605 16 0.0 0.0 0.00 0.08 0.00 89 1021.7
20260902193108 16 0.0 0.0 0.00 0.08 0.00 90 1021.6
20260902191634 16 0.0 0.0 0.00 0.08 0.00 90 1021.7
20260902184600 16 0.0 0.0 0.00 0.08 0.00 90 1021.7
20260902183124 15 0.0 0.0 0.00 0.08 0.00 91 1021.8
20260902181612 15 0.0 0.0 0.00 0.08 0.00 90 1022.0
20260902180104 15 0.0 0.0 0.00 0.08 0.00 90 1021.7
20260902174604 15 0.0 0.0 0.00 0.18 0.00 90 1021.8
20260902173114 15 0.0 0.0 0.00 0.18 0.00 90 1021.9
20260902171618 16 0.0 0.0 0.00 0.18 0.00 89 1022.0
20260902164606 15 0.0 0.0 0.00 0.25 0.00 87 1022.2
20260902163105 15 0.0 0.0 0.00 0.25 0.00 87 1022.2
20260902161605 15 0.0 0.0 0.00 0.25 0.00 88 1022.1
20260902160106 15 0.0 0.0 0.00 0.25 0.00 89 1022.3
20260902154601 15 0.0 0.0 0.00 0.56 0.00 86 1022.5
20260902153059 15 0.0 0.0 0.00 0.56 0.00 91 1022.6
20260902151600 14 0.0 0.0 0.00 0.56 0.00 91 1022.7
20260902144600 13 0.0 0.0 0.00 0.58 0.00 94 1022.9
20260902143058 13 0.0 0.0 0.00 0.58 0.00 93 1022.9
20260902141600 13 0.0 0.0 0.00 0.58 0.00 93 1022.8
20260902140100 13 0.0 0.0 0.00 0.58 0.00 93 1022.5
20260902134558 13 0.0 0.0 0.00 0.64 0.00 93 1022.6
20260902133105 13 0.0 0.0 0.00 0.64 0.00 93 1022.3
20260902131602 13 0.0 0.0 0.00 0.64 0.00 93 1022.1
20260902124643 13 0.0 0.0 0.00 0.64 0.00 95 1022.2
20260902123101 12 0.0 0.0 0.00 0.64 0.00 95 1022.1
20260902121600 12 0.0 0.0 0.00 0.64 0.00 96 1022.1
20260902120105 12 0.0 0.0 0.00 0.64 0.00 96 1022.1
20260902114557 12 0.0 0.0 0.00 0.91 0.00 97 1022.1
20260902113103 12 0.0 0.0 0.00 0.91 0.00 97 1022.2
20260902111606 12 0.0 0.0 0.00 0.91 0.00 98 1022.4
20260902110059 12 0.0 0.0 0.00 0.91 0.00 98 1022.2
20260902104611 12 0.0 0.0 0.00 1.40 0.00 98 1022.1
20260902103102 12 0.0 0.0 0.00 1.40 0.00 98 1022.0
20260902101559 12 0.0 0.0 0.00 1.40 0.00 98 1022.0
20260902100059 12 0.0 0.0 0.00 1.40 0.00 98 1021.7
20260902094559 12 0.0 0.0 0.00 1.42 0.00 98 1021.6
20260902093107 12 0.0 0.0 0.00 1.42 0.00 98 1021.5
20260902091603 12 0.0 0.0 0.00 1.42 0.00 98 1021.5
20260902090114 12 0.0 0.0 0.00 1.42 0.00 98 1021.5
20260902084604 12 0.0 0.0 0.00 1.42 0.00 98 1021.1
20260902083106 12 0.0 0.0 0.00 1.42 0.00 98 1021.2
20260902081601 12 0.0 0.0 0.00 1.42 0.00 98 1021.0